QPF
0.00 0.00 0.00 0.00 0.00 0.00 0.00 0.00 0.00 0.00 0.00 0.00 0.00 0.00 0.00 0.00 0.00 0.00 0.00 0.00 0.00 0.00 0.00 0.00 0.00 0.00 0.00 0.02 0.01 0.00 0.00 0.00 0.00 0.00 0.00 0.00 0.00 0.00 0.00 0.00 0.00 0.00 0.00 0.00 0.00
0.00 0.00 0.00 0.00 0.00 0.00 0.00 0.00 0.00 0.00 0.00 0.00 0.00 0.00 0.00 0.00 0.00 0.00 0.00 0.00 0.00 0.00 0.00 0.00 0.00 0.00 0.01 0.02 0.01 0.00 0.00 0.00 0.00 0.00 0.00 0.00 0.00 0.00 0.00 0.00 0.00 0.00 0.00 0.00 0.00
0.00 0.00 0.00 0.00 0.00 0.00 0.00 0.00 0.00 0.00 0.00 0.00 0.00 0.00 0.00 0.00 0.00 0.00 0.00 0.00 0.00 0.00 0.00 0.00 0.00 0.00 0.00 0.02 0.01 0.00 0.00 0.00 0.00 0.00 0.00 0.00 0.00 0.00 0.00 0.00 0.00 0.00 0.00 0.00 0.01
0.00 0.00 0.00 0.00 0.00 0.00 0.00 0.00 0.00 0.00 0.00 0.00 0.00 0.00 0.00 0.00 0.00 0.00 0.00 0.00 0.00 0.00 0.00 0.00 0.00 0.00 0.01 0.01 0.01 0.00 0.00 0.00 0.00 0.00 0.00 0.00 0.00 0.00 0.00 0.00 0.00 0.00 0.00 0.00 0.00
0.00 0.00 0.00 0.00 0.00 0.00 0.00 0.00 0.00 0.00 0.00 0.00 0.00 0.00 0.00 0.00 0.00 0.00 0.00 0.00 0.00 0.00 0.00 0.00 0.00 0.00 0.00 0.00 0.01 0.01 0.00 0.00 0.00 0.00 0.00 0.00 0.00 0.00 0.00 0.00 0.00 0.00 0.00 0.00 0.00
0.00 0.00 0.00 0.00 0.00 0.00 0.00 0.00 0.00 0.00 0.00 0.00 0.00 0.00 0.00 0.00 0.00 0.00 0.00 0.00 0.00 0.00 0.00 0.00 0.00 0.00 0.01 0.00 0.00 0.00 0.01 0.00 0.00 0.00 0.00 0.00 0.00 0.00 0.00 0.00 0.00 0.00 0.00 0.00 0.00
0.00 0.00 0.00 0.00 0.00 0.00 0.00 0.00 0.00 0.00 0.00 0.00 0.00 0.00 0.00 0.00 0.00 0.00 0.00 0.00 0.00 0.00 0.00 0.00 0.00 0.00 0.01 0.02 0.00 0.00 0.01 0.01 0.00 0.00 0.00 0.00 0.00 0.00 0.00 0.00 0.00 0.00 0.00 0.00 0.00
0.00 0.00 0.00 0.00 0.00 0.00 0.00 0.00 0.00 0.00 0.00 0.00 0.00 0.00 0.00 0.00 0.00 0.00 0.00 0.00 0.00 0.00 0.00 0.00 0.00 0.00 0.00 0.02 0.01 0.00 0.01 0.01 0.00 0.00 0.00 0.00 0.00 0.00 0.00 0.00 0.00 0.00 0.00 0.00 0.00
0.00 0.00 0.00 0.00 0.00 0.00 0.00 0.00 0.00 0.00 0.00 0.00 0.00 0.00 0.00 0.00 0.00 0.00 0.00 0.00 0.00 0.00 0.00 0.00 0.00 0.00 0.01 0.01 0.02 0.02 0.01 0.00 0.00 0.00 0.00 0.00 0.00 0.00 0.00 0.00 0.00 0.00 0.00 0.00 0.01
0.00 0.00 0.00 0.00 0.00 0.00 0.00 0.00 0.00 0.00 0.00 0.00 0.00 0.00 0.00 0.00 0.00 0.00 0.00 0.00 0.00 0.00 0.00 0.00 0.00 0.00 0.01 0.03 0.01 0.02 0.01 0.00 0.00 0.00 0.00 0.00 0.00 0.00 0.00 0.00 0.00 0.00 0.00 0.00 0.03
0.00 0.00 0.00 0.00 0.00 0.00 0.00 0.00 0.00 0.00 0.00 0.00 0.00 0.00 0.00 0.00 0.00 0.00 0.00 0.00 0.00 0.00 0.00 0.00 0.00 0.02 0.00 0.00 0.00 0.00 0.00 0.00 0.00 0.00 0.00 0.00 0.00 0.00 0.00 0.00 0.00 0.00 0.00 0.00 0.01
0.00 0.00 0.00 0.00 0.00 0.00 0.00 0.00 0.00 0.00 0.00 0.00 0.00 0.00 0.00 0.00 0.00 0.00 0.00 0.00 0.00 0.00 0.00 0.00 0.00 0.00 0.00 0.00 0.00 0.00 0.00 0.00 0.00 0.00 0.00 0.00 0.00 0.00 0.00 0.00 0.00 0.00 0.00 0.00 0.01
0.00 0.00 0.00 0.00 0.00 0.00 0.00 0.00 0.00 0.00 0.00 0.00 0.00 0.00 0.00 0.00 0.00 0.00 0.00 0.00 0.00 0.00 0.00 0.00 0.00 0.00 0.00 0.00 0.00 0.00 0.00 0.00 0.01 0.01 0.00 0.00 0.00 0.00 0.00 0.00 0.00 0.00 0.00 0.00 0.01
0.00 0.00 0.00 0.00 0.00 0.00 0.00 0.00 0.00 0.00 0.00 0.00 0.00 0.00 0.00 0.00 0.00 0.00 0.00 0.00 0.00 0.00 0.00 0.00 0.00 0.00 0.00 0.00 0.00 0.00 0.00 0.00 0.00 0.01 0.02 0.00 0.00 0.00 0.00 0.00 0.00 0.00 0.00 0.00 0.00
0.00 0.00 0.00 0.00 0.00 0.00 0.00 0.00 0.00 0.00 0.00 0.00 0.00 0.00 0.00 0.00 0.00 0.00 0.00 0.00 0.00 0.00 0.00 0.00 0.00 0.00 0.00 0.00 0.00 0.00 0.00 0.00 0.00 0.01 0.02 0.01 0.00 0.00 0.00 0.00 0.00 0.00 0.00 0.00 0.00
0.00 0.00 0.00 0.00 0.00 0.00 0.00 0.00 0.00 0.00 0.00 0.00 0.00 0.00 0.00 0.00 0.00 0.00 0.00 0.00 0.00 0.00 0.00 0.00 0.01 0.00 0.00 0.00 0.00 0.00 0.00 0.00 0.00 0.01 0.01 0.01 0.00 0.00 0.00 0.00 0.00 0.00 0.00 0.00 0.00
0.00 0.00 0.00 0.00 0.00 0.00 0.00 0.00 0.00 0.00 0.00 0.00 0.00 0.00 0.00 0.00 0.00 0.00 0.00 0.00 0.00 0.00 0.00 0.00 0.01 0.00 0.00 0.00 0.00 0.00 0.00 0.00 0.01 0.01 0.01 0.01 0.01 0.00 0.00 0.00 0.00 0.00 0.00 0.00 0.00
0.00 0.00 0.00 0.00 0.00 0.00 0.00 0.00 0.00 0.00 0.00 0.00 0.00 0.00 0.00 0.00 0.00 0.00 0.00 0.00 0.00 0.00 0.00 0.00 0.00 0.00 0.00 0.00 0.00 0.00 0.00 0.00 0.00 0.01 0.01 0.02 0.04 0.00 0.00 0.00 0.00 0.00 0.00 0.00 0.00
0.00 0.00 0.00 0.00 0.00 0.00 0.00 0.00 0.00 0.00 0.00 0.00 0.00 0.00 0.00 0.00 0.00 0.00 0.00 0.00 0.00 0.00 0.00 0.00 0.00 0.00 0.00 0.00 0.00 0.00 0.00 0.00 0.00 0.00 0.01 0.02 0.00 0.00 0.00 0.00 0.00 0.00 0.00 0.00 0.00
0.00 0.00 0.00 0.00 0.00 0.00 0.00 0.00 0.00 0.00 0.00 0.00 0.00 0.00 0.00 0.00 0.00 0.00 0.00 0.00 0.00 0.00 0.00 0.01 0.00 0.00 0.00 0.00 0.00 0.00 0.00 0.00 0.00 0.00 0.00 0.00 0.00 0.00 0.00 0.00 0.00 0.00 0.00 0.00 0.00
0.00 0.00 0.00 0.00 0.00 0.00 0.00 0.00 0.00 0.00 0.00 0.00 0.00 0.00 0.00 0.00 0.00 0.00 0.00 0.00 0.00 0.00 0.00 0.01 0.01 0.00 0.00 0.00 0.00 0.00 0.00 0.00 0.00 0.00 0.00 0.00 0.00 0.01 0.00 0.00 0.00 0.00 0.00 0.00 0.00
0.00 0.00 0.00 0.00 0.00 0.00 0.00 0.00 0.00 0.00 0.00 0.00 0.00 0.00 0.00 0.00 0.00 0.00 0.00 0.00 0.00 0.00 0.00 0.01 0.00 0.00 0.00 0.00 0.00 0.00 0.00 0.00 0.00 0.00 0.00 0.00 0.00 0.01 0.00 0.00 0.00 0.00 0.00 0.00 0.00
0.00 0.00 0.00 0.00 0.00 0.00 0.00 0.00 0.00 0.00 0.00 0.00 0.00 0.00 0.00 0.00 0.00 0.00 0.00 0.00 0.00 0.00 0.01 0.00 0.00 0.00 0.00 0.00 0.00 0.00 0.00 0.00 0.00 0.00 0.00 0.00 0.00 0.01 0.00 0.00 0.00 0.00 0.00 0.00 0.00
0.00 0.00 0.00 0.00 0.00 0.00 0.00 0.00 0.00 0.00 0.00 0.00 0.00 0.00 0.00 0.00 0.00 0.00 0.00 0.00 0.00 0.00 0.00 0.00 0.00 0.00 0.00 0.00 0.00 0.00 0.00 0.00 0.00 0.00 0.00 0.00 0.00 0.00 0.00 0.00 0.00 0.00 0.00 0.00 0.00
0.00 0.00 0.00 0.00 0.00 0.00 0.00 0.00 0.00 0.00 0.00 0.00 0.00 0.00 0.00 0.00 0.00 0.00 0.00 0.00 0.00 0.00 0.00 0.00 0.00 0.00 0.00 0.00 0.00 0.00 0.00 0.00 0.00 0.00 0.00 0.00 0.00 0.00 0.00 0.00 0.00 0.00 0.00 0.00 0.00
0.00 0.00 0.00 0.00 0.00 0.00 0.00 0.00 0.00 0.00 0.00 0.00 0.00 0.00 0.00 0.00 0.00 0.00 0.00 0.00 0.00 0.00 0.00 0.00 0.00 0.00 0.00 0.00 0.00 0.00 0.00 0.00 0.00 0.00 0.00 0.00 0.00 0.00 0.00 0.00 0.00 0.00 0.00 0.00 0.00
0.00 0.00 0.00 0.00 0.00 0.00 0.00 0.00 0.00 0.00 0.00 0.00 0.00 0.00 0.00 0.00 0.00 0.00 0.00 0.00 0.00 0.00 0.00 0.00 0.00 0.00 0.00 0.00 0.00 0.00 0.00 0.00 0.00 0.00 0.00 0.00 0.00 0.00 0.00 0.00 0.00 0.00 0.00 0.00 0.00
MSLP
1022.09 1021.72 1021.36 1020.95 1020.53 1020.03 1019.56 1019.16 1018.78 1018.42 1018.03 1017.71 1017.63 1017.50 1017.34 1017.24 1016.73 1016.58 1016.68 1017.42 1016.81 1016.04 1015.44 1014.35 1013.47 1012.77 1012.82 1012.06 1011.23 1010.47 1008.73 1005.81 1004.98 1004.23 1003.30 1002.66 1002.89 1003.49 1003.85 1003.42 1003.48 1004.03 1004.09 1004.06 1006.45
1022.34 1021.97 1021.61 1021.18 1020.72 1020.05 1019.52 1019.11 1018.76 1018.44 1018.12 1017.78 1017.61 1017.64 1017.40 1017.31 1016.66 1016.92 1018.28 1017.68 1016.97 1016.34 1015.43 1014.59 1013.72 1012.65 1012.34 1011.66 1010.76 1009.94 1007.64 1005.42 1005.41 1004.35 1003.54 1003.38 1003.52 1003.61 1004.04 1003.72 1003.49 1003.95 1004.60 1005.90 1007.44
1022.56 1022.20 1021.81 1021.39 1020.96 1020.28 1019.90 1019.38 1018.94 1018.52 1018.36 1018.09 1017.97 1017.84 1017.48 1017.11 1016.90 1017.83 1018.13 1017.68 1017.02 1016.41 1015.63 1014.73 1013.82 1013.60 1012.50 1011.44 1010.27 1009.17 1006.19 1006.50 1005.32 1004.73 1004.43 1003.98 1003.95 1004.17 1003.49 1003.36 1003.22 1003.70 1004.82 1006.15 1007.54
1022.72 1022.39 1022.04 1021.67 1021.28 1020.77 1020.29 1019.77 1019.16 1018.94 1018.77 1018.55 1018.22 1017.87 1017.36 1016.39 1017.21 1018.20 1018.19 1017.69 1017.04 1016.21 1015.46 1014.16 1013.39 1012.92 1012.61 1011.04 1010.23 1008.84 1007.56 1007.25 1005.77 1005.30 1005.13 1005.29 1005.13 1004.28 1004.00 1003.35 1003.01 1003.39 1004.32 1005.88 1007.01
1022.84 1022.57 1022.27 1021.94 1021.55 1021.07 1020.64 1020.02 1019.42 1019.32 1019.17 1018.80 1018.30 1017.78 1017.33 1017.08 1018.36 1018.44 1018.12 1017.53 1016.77 1016.04 1015.21 1014.28 1013.18 1012.73 1011.43 1010.89 1010.30 1008.48 1007.74 1007.11 1006.54 1005.97 1005.64 1006.10 1005.46 1004.78 1003.91 1003.84 1004.00 1003.81 1003.90 1005.20 1006.48
1022.98 1022.77 1022.49 1022.14 1021.73 1021.41 1020.97 1020.35 1019.87 1019.60 1019.38 1019.12 1018.76 1018.17 1017.39 1018.14 1019.09 1018.47 1018.01 1017.21 1016.54 1015.84 1014.92 1014.35 1013.47 1012.40 1011.95 1011.03 1010.02 1008.97 1008.43 1007.67 1006.90 1006.18 1006.19 1006.15 1005.88 1005.62 1004.19 1004.14 1003.88 1004.38 1004.16 1004.57 1005.71
1023.24 1022.97 1022.63 1022.27 1021.88 1021.64 1021.18 1020.71 1020.26 1019.92 1019.68 1019.35 1018.94 1018.26 1018.26 1019.54 1019.03 1018.59 1017.88 1017.15 1016.30 1015.37 1014.44 1013.99 1013.50 1012.83 1011.97 1011.25 1010.38 1009.26 1008.83 1008.02 1006.98 1006.48 1006.08 1006.17 1005.66 1004.09 1004.56 1004.02 1003.78 1004.18 1004.15 1004.25 1005.27
1023.47 1023.10 1022.77 1022.43 1022.11 1021.82 1021.42 1020.82 1020.51 1019.95 1019.82 1019.44 1019.02 1018.22 1018.63 1019.38 1019.04 1018.65 1017.71 1016.58 1015.79 1014.78 1013.85 1013.53 1013.29 1012.79 1012.12 1012.21 1011.17 1009.31 1009.09 1008.15 1007.01 1006.10 1006.00 1006.40 1002.81 1004.18 1004.61 1004.19 1003.93 1003.77 1004.07 1004.23 1005.06
1023.68 1023.27 1022.89 1022.49 1022.23 1021.86 1021.47 1020.86 1020.54 1019.97 1019.71 1019.41 1018.90 1018.48 1018.97 1018.97 1018.90 1018.67 1018.20 1016.82 1015.43 1014.16 1013.00 1012.59 1012.63 1012.32 1012.20 1012.20 1011.64 1009.69 1007.48 1006.85 1007.23 1005.92 1005.14 1005.02 1003.24 1003.44 1003.55 1003.83 1003.82 1003.62 1004.00 1004.61 1005.42
1023.95 1023.52 1023.07 1022.77 1022.31 1021.80 1021.32 1021.14 1020.75 1019.85 1019.44 1019.21 1019.17 1019.15 1019.21 1019.51 1019.35 1018.82 1018.46 1016.98 1015.49 1013.99 1012.85 1012.59 1011.94 1012.03 1011.89 1012.16 1010.83 1010.15 1008.06 1006.40 1004.95 1005.35 1004.69 1003.35 1003.13 1003.16 1002.94 1003.41 1003.78 1003.97 1004.44 1005.14 1006.60
1024.21 1023.79 1023.34 1023.01 1022.58 1021.90 1021.20 1020.80 1020.60 1020.10 1020.33 1020.74 1020.99 1020.85 1020.70 1020.41 1019.58 1019.21 1018.69 1016.87 1015.93 1014.52 1014.12 1013.36 1012.91 1012.58 1013.90 1013.42 1012.70 1011.53 1009.85 1007.58 1004.66 1003.68 1003.93 1002.45 1002.66 1003.15 1003.61 1004.00 1004.35 1004.69 1004.97 1006.15 1008.11
1024.36 1023.93 1023.50 1023.03 1022.95 1022.11 1021.35 1021.48 1022.73 1023.16 1021.66 1021.60 1021.41 1021.15 1021.15 1020.64 1019.74 1019.77 1019.51 1018.30 1017.02 1015.86 1015.33 1014.32 1013.64 1014.61 1014.48 1014.10 1013.25 1012.16 1010.70 1008.49 1006.09 1003.44 1002.81 1001.96 1002.28 1002.70 1003.59 1004.68 1005.90 1006.48 1006.30 1008.08 1009.61
1024.34 1023.92 1023.52 1023.10 1023.02 1022.70 1022.79 1023.32 1023.55 1023.28 1021.85 1021.51 1021.59 1021.49 1021.19 1020.68 1020.39 1020.46 1020.52 1019.58 1018.10 1017.21 1016.71 1015.85 1015.40 1015.59 1015.18 1014.47 1014.16 1012.28 1011.36 1009.83 1008.17 1005.38 1003.20 1002.37 1002.21 1002.85 1004.29 1006.22 1008.17 1009.53 1010.24 1010.49 1011.44
1024.32 1023.87 1023.55 1023.21 1023.28 1022.97 1023.15 1023.80 1023.63 1023.36 1021.74 1021.73 1021.52 1021.76 1021.29 1020.78 1020.51 1021.19 1021.34 1021.05 1019.26 1018.74 1017.92 1016.86 1016.85 1016.51 1015.91 1015.38 1015.55 1013.55 1011.78 1011.01 1009.37 1007.78 1003.96 1002.35 1001.99 1002.84 1004.80 1006.88 1009.42 1011.66 1012.77 1013.29 1013.78
1024.32 1023.99 1023.83 1023.45 1023.21 1022.99 1024.04 1023.84 1023.57 1023.28 1022.30 1022.21 1021.98 1022.27 1021.79 1021.88 1021.83 1021.85 1021.95 1021.33 1020.60 1020.20 1019.26 1018.30 1018.19 1017.90 1017.44 1017.52 1017.03 1015.06 1013.68 1012.23 1010.70 1008.48 1006.81 1003.43 1003.46 1002.43 1004.65 1007.60 1010.70 1013.48 1014.82 1015.64 1016.23
1024.43 1024.35 1023.93 1023.56 1023.24 1024.16 1024.07 1023.90 1023.51 1022.72 1022.17 1022.44 1022.48 1022.44 1022.28 1022.27 1022.15 1022.47 1022.56 1022.58 1021.72 1020.90 1019.86 1019.58 1019.60 1019.34 1019.60 1018.12 1017.14 1016.62 1014.02 1011.99 1010.69 1009.50 1007.02 1004.72 1004.30 1005.13 1005.66 1008.07 1012.14 1015.51 1016.83 1017.62 1018.13
1024.45 1024.55 1024.18 1024.38 1024.23 1024.24 1024.09 1023.34 1022.77 1022.71 1023.21 1023.44 1023.40 1023.54 1023.13 1023.05 1022.95 1023.05 1023.36 1023.24 1023.51 1022.39 1021.33 1020.22 1020.17 1020.48 1020.51 1018.93 1017.67 1017.84 1015.49 1013.37 1012.11 1010.11 1006.67 1005.46 1006.94 1010.38 1012.08 1012.85 1014.28 1017.10 1018.72 1019.46 1019.74
1024.47 1024.58 1024.73 1024.46 1024.40 1024.23 1023.55 1022.34 1022.95 1024.33 1024.52 1025.04 1024.83 1024.26 1023.81 1023.75 1024.05 1023.77 1024.07 1024.43 1024.65 1024.45 1023.03 1021.98 1021.03 1021.72 1022.12 1022.22 1021.62 1019.80 1018.68 1016.35 1013.32 1010.32 1008.39 1007.77 1009.34 1013.84 1015.89 1017.07 1018.14 1019.47 1020.47 1020.94 1021.09
1024.67 1024.18 1023.98 1024.15 1024.20 1023.94 1022.90 1023.47 1025.47 1026.28 1026.60 1026.28 1025.33 1024.76 1024.69 1024.78 1024.95 1024.52 1024.91 1025.62 1025.57 1025.40 1025.27 1023.83 1022.61 1022.51 1023.03 1023.29 1023.01 1021.57 1020.41 1020.56 1017.66 1013.80 1011.82 1011.98 1015.09 1016.88 1018.22 1019.19 1020.25 1021.30 1021.99 1022.39 1022.59
1024.20 1024.02 1024.01 1024.17 1023.80 1023.17 1022.73 1025.31 1026.62 1027.51 1027.69 1027.38 1026.42 1026.15 1025.66 1025.54 1025.63 1025.33 1025.68 1026.06 1026.07 1025.92 1025.56 1025.09 1023.99 1023.15 1023.22 1023.57 1024.07 1023.86 1023.80 1021.79 1019.36 1016.27 1013.58 1015.25 1017.43 1019.47 1019.91 1021.03 1022.08 1022.86 1023.47 1023.73 1023.81
1024.26 1023.42 1024.30 1024.10 1023.70 1023.10 1024.40 1026.31 1027.28 1027.96 1028.48 1028.19 1027.61 1027.31 1027.09 1026.92 1026.65 1026.22 1026.39 1026.59 1026.52 1026.16 1025.51 1025.03 1024.82 1023.77 1023.68 1025.41 1025.69 1024.89 1024.75 1024.00 1022.24 1019.68 1017.78 1017.61 1020.84 1021.66 1021.89 1022.78 1023.41 1024.22 1024.66 1024.79 1024.71
1024.11 1023.46 1024.60 1024.09 1023.69 1024.58 1025.97 1027.55 1028.43 1028.33 1028.63 1028.68 1028.47 1028.14 1027.99 1027.76 1027.25 1026.83 1026.80 1026.89 1026.95 1026.60 1025.58 1025.21 1025.16 1024.49 1025.18 1026.31 1026.53 1026.23 1026.29 1025.83 1024.26 1021.76 1020.32 1020.27 1023.57 1024.09 1024.03 1024.40 1024.78 1024.99 1025.34 1025.56 1025.57
1023.91 1024.38 1024.62 1023.85 1024.70 1025.81 1027.41 1027.96 1028.66 1028.91 1028.98 1028.96 1028.85 1028.81 1028.58 1028.24 1027.94 1027.39 1027.26 1027.09 1027.12 1026.91 1026.50 1025.98 1025.09 1024.74 1025.29 1026.43 1025.91 1026.19 1026.56 1026.76 1025.65 1024.88 1023.10 1022.67 1024.71 1025.32 1025.48 1025.87 1026.00 1025.95 1026.17 1026.22 1026.13
1024.31 1024.41 1025.36 1025.85 1027.18 1027.28 1027.96 1028.46 1028.73 1029.30 1029.40 1029.65 1029.46 1029.05 1029.03 1028.64 1028.33 1027.96 1027.66 1027.49 1027.43 1027.30 1026.96 1026.44 1026.23 1026.23 1026.51 1027.20 1027.31 1027.11 1027.06 1027.16 1026.40 1025.22 1025.02 1025.12 1026.23 1027.05 1027.19 1027.28 1027.29 1027.07 1027.06 1026.98 1026.87
1025.03 1026.27 1027.13 1026.89 1027.66 1028.30 1028.96 1029.19 1029.31 1029.56 1029.82 1029.81 1029.38 1029.61 1029.64 1029.28 1028.77 1028.38 1028.48 1028.27 1027.39 1027.58 1027.24 1027.20 1026.67 1026.74 1027.19 1027.29 1027.32 1027.40 1027.68 1027.88 1027.89 1027.51 1026.88 1027.41 1027.88 1028.57 1028.92 1028.84 1028.66 1028.37 1028.08 1027.82 1027.63
1025.70 1026.57 1027.59 1028.09 1028.84 1028.68 1029.39 1029.46 1029.84 1030.07 1030.41 1030.01 1030.10 1030.04 1029.82 1029.85 1030.07 1029.77 1029.74 1029.05 1028.48 1028.28 1027.75 1027.55 1026.96 1026.74 1026.47 1026.64 1027.16 1027.39 1028.19 1028.43 1028.83 1028.95 1028.73 1028.76 1029.20 1029.63 1029.81 1029.76 1029.48 1029.40 1029.23 1028.87 1028.74
1027.15 1027.60 1026.98 1028.66 1028.85 1029.01 1029.48 1029.91 1030.26 1030.52 1030.30 1030.52 1030.63 1030.32 1029.94 1030.47 1030.70 1030.38 1030.21 1030.09 1029.83 1029.42 1028.74 1028.17 1027.77 1026.80 1025.86 1026.42 1026.74 1027.42 1028.88 1029.13 1029.45 1029.80 1029.58 1029.24 1029.98 1030.00 1029.91 1030.10 1030.40 1030.39 1030.05 1029.81 1029.72
Thickness
5616 5616 5615 5615 5615 5614 5613 5611 5609 5607 5604 5601 5596 5591 5587 5582 5581 5578 5571 5562 5567 5571 5579 5587 5594 5600 5600 5605 5616 5624 5619 5640 5653 5665 5684 5709 5701 5712 5717 5714 5721 5727 5733 5740 5732
5611 5610 5610 5609 5608 5608 5606 5604 5601 5598 5594 5590 5584 5577 5571 5565 5564 5557 5538 5539 5541 5546 5554 5563 5570 5581 5583 5593 5603 5603 5618 5640 5656 5671 5676 5689 5689 5697 5691 5699 5709 5716 5724 5725 5716
5606 5605 5604 5602 5600 5599 5596 5593 5589 5585 5579 5574 5566 5558 5551 5543 5537 5520 5507 5505 5508 5513 5524 5534 5543 5546 5558 5577 5590 5598 5625 5630 5644 5658 5664 5673 5678 5686 5689 5686 5705 5707 5712 5713 5707
5602 5600 5598 5595 5591 5588 5584 5580 5577 5570 5562 5554 5547 5540 5532 5527 5513 5485 5473 5470 5474 5482 5491 5508 5519 5524 5533 5552 5574 5579 5606 5609 5628 5642 5644 5647 5658 5669 5676 5690 5709 5715 5713 5706 5701
5598 5595 5591 5587 5583 5578 5573 5569 5565 5557 5548 5541 5534 5525 5516 5499 5467 5455 5450 5449 5454 5460 5467 5478 5496 5503 5520 5537 5548 5567 5589 5598 5608 5618 5631 5633 5639 5652 5665 5680 5693 5702 5706 5702 5700
5592 5588 5584 5579 5575 5569 5563 5558 5552 5543 5534 5524 5514 5500 5488 5459 5443 5441 5441 5440 5440 5445 5451 5456 5468 5485 5488 5509 5526 5557 5563 5572 5586 5602 5612 5615 5622 5630 5655 5671 5682 5682 5690 5701 5699
5585 5581 5577 5572 5567 5559 5552 5545 5537 5528 5518 5508 5493 5479 5458 5434 5433 5430 5430 5428 5430 5435 5439 5441 5451 5459 5480 5494 5513 5533 5530 5546 5567 5584 5597 5605 5602 5632 5648 5658 5666 5671 5680 5694 5695
5578 5574 5569 5563 5557 5549 5541 5534 5524 5515 5502 5489 5473 5462 5440 5429 5423 5419 5421 5421 5418 5425 5434 5432 5436 5446 5459 5466 5481 5514 5516 5513 5553 5571 5586 5583 5618 5627 5631 5639 5651 5664 5671 5681 5687
5571 5567 5561 5555 5548 5539 5530 5523 5512 5502 5489 5472 5459 5447 5427 5422 5416 5409 5405 5411 5416 5418 5426 5431 5430 5437 5445 5442 5452 5492 5516 5530 5526 5557 5575 5579 5607 5620 5625 5630 5640 5654 5663 5670 5674
5565 5560 5554 5546 5538 5530 5522 5510 5499 5490 5477 5461 5445 5431 5421 5408 5404 5400 5392 5396 5404 5412 5416 5418 5427 5427 5438 5436 5451 5478 5505 5528 5540 5546 5564 5585 5591 5607 5617 5623 5631 5643 5652 5661 5658
5558 5552 5546 5537 5528 5521 5513 5504 5497 5486 5460 5435 5417 5406 5398 5395 5393 5387 5381 5390 5389 5397 5386 5399 5404 5405 5372 5392 5401 5421 5450 5472 5534 5552 5555 5582 5585 5592 5598 5607 5618 5629 5642 5648 5636
5551 5545 5538 5530 5518 5511 5502 5489 5461 5441 5444 5422 5408 5398 5387 5382 5381 5374 5364 5363 5367 5369 5370 5378 5386 5371 5380 5389 5399 5413 5431 5463 5505 5547 5556 5577 5573 5586 5587 5592 5595 5606 5630 5619 5613
5546 5539 5531 5524 5511 5499 5484 5466 5448 5433 5439 5417 5400 5388 5380 5375 5363 5352 5342 5337 5345 5343 5342 5346 5355 5357 5363 5376 5369 5412 5421 5450 5467 5510 5545 5561 5559 5565 5562 5565 5563 5554 5565 5586 5591
5540 5533 5525 5517 5505 5492 5475 5454 5439 5425 5438 5410 5393 5380 5372 5367 5356 5336 5320 5310 5320 5315 5320 5333 5336 5337 5347 5357 5348 5377 5432 5428 5441 5455 5508 5546 5534 5554 5555 5555 5552 5525 5527 5542 5557
5535 5526 5518 5508 5498 5487 5461 5446 5432 5420 5435 5401 5380 5368 5360 5343 5332 5318 5306 5299 5293 5289 5306 5311 5307 5310 5317 5318 5329 5352 5378 5400 5415 5440 5458 5520 5529 5566 5561 5546 5539 5506 5503 5514 5522
5529 5520 5512 5502 5490 5469 5453 5439 5427 5434 5426 5393 5374 5358 5350 5341 5326 5306 5290 5282 5284 5283 5298 5297 5295 5296 5287 5309 5320 5326 5374 5410 5430 5435 5458 5499 5525 5544 5561 5551 5511 5477 5479 5489 5498
5526 5515 5506 5490 5480 5462 5448 5442 5450 5430 5413 5381 5359 5348 5340 5326 5311 5295 5275 5268 5255 5258 5267 5290 5282 5281 5278 5292 5314 5302 5354 5398 5413 5421 5469 5516 5512 5435 5432 5457 5484 5456 5455 5463 5475
5522 5511 5497 5485 5471 5458 5450 5466 5438 5406 5389 5367 5348 5343 5331 5317 5298 5287 5269 5255 5253 5247 5255 5260 5269 5258 5255 5247 5246 5277 5298 5355 5422 5446 5477 5504 5506 5406 5394 5406 5425 5424 5429 5439 5452
5517 5509 5499 5482 5469 5457 5464 5432 5400 5375 5362 5346 5346 5333 5325 5311 5288 5280 5260 5241 5243 5242 5226 5239 5252 5260 5243 5240 5244 5259 5289 5274 5323 5393 5431 5406 5356 5371 5373 5379 5390 5398 5408 5417 5429
5519 5509 5496 5480 5470 5464 5464 5411 5386 5366 5350 5338 5330 5322 5308 5299 5281 5273 5252 5246 5237 5240 5241 5232 5232 5251 5248 5246 5239 5235 5240 5285 5312 5378 5438 5372 5339 5340 5357 5358 5364 5374 5384 5396 5409
5516 5517 5490 5478 5468 5467 5436 5401 5381 5364 5343 5329 5322 5309 5300 5284 5274 5265 5249 5242 5237 5234 5241 5236 5231 5244 5249 5212 5208 5227 5228 5240 5261 5304 5362 5387 5309 5315 5331 5336 5342 5352 5363 5375 5389
5515 5520 5485 5475 5474 5451 5420 5385 5368 5359 5345 5328 5316 5304 5289 5279 5268 5260 5247 5238 5234 5231 5233 5235 5227 5230 5222 5209 5211 5219 5214 5220 5243 5296 5323 5328 5274 5290 5304 5314 5324 5337 5349 5360 5371
5518 5500 5482 5477 5465 5440 5404 5389 5367 5351 5339 5324 5310 5299 5289 5276 5260 5257 5247 5241 5232 5226 5221 5228 5235 5233 5227 5212 5229 5220 5218 5212 5227 5239 5282 5304 5277 5278 5285 5292 5303 5316 5329 5343 5356
5514 5508 5478 5458 5431 5421 5399 5384 5369 5350 5336 5318 5307 5301 5284 5274 5269 5253 5244 5237 5229 5222 5223 5227 5222 5218 5214 5198 5204 5204 5212 5208 5218 5259 5260 5261 5253 5252 5262 5274 5285 5298 5310 5324 5338
5503 5473 5453 5456 5431 5409 5386 5375 5361 5344 5332 5319 5309 5293 5277 5263 5263 5257 5240 5227 5232 5222 5221 5216 5210 5213 5201 5203 5206 5208 5205 5201 5198 5210 5233 5230 5230 5232 5237 5249 5264 5279 5293 5306 5319
5502 5477 5453 5433 5411 5409 5385 5377 5356 5340 5322 5316 5299 5288 5282 5264 5250 5233 5223 5221 5218 5214 5215 5215 5210 5215 5211 5214 5208 5206 5201 5202 5194 5195 5206 5214 5212 5219 5225 5235 5247 5258 5272 5286 5298
5476 5460 5460 5420 5415 5408 5391 5370 5351 5336 5329 5313 5297 5287 5281 5261 5244 5236 5225 5212 5203 5198 5200 5204 5203 5215 5223 5216 5213 5208 5182 5191 5189 5186 5194 5211 5202 5211 5221 5224 5228 5237 5253 5266 5277